Regional Weather Roundup
Issued by NWS

Home | Current Version | Previous Version | Graphics & Text | Print | Product List | Glossary On
Versions: 1 2 3 4 5 6 7 8 9 10 11 12 13 14 15 16 17 18 19 20 21 22 23 24 25 26 27 28 29 30 31 32 33 34 35 36 37 38 39 40 41 42 43 44 45 46 47 48 49 50
558
ASUS45 KABQ 191010
RWRNM
NEW MEXICO REGIONAL WEATHER ROUNDUP
NATIONAL WEATHER SERVICE ALBUQUERQUE NM
300 AM MST SUN FEB 19 2017

NOTE: "FAIR" MEANS FEW OR NO CLOUDS BELOW 12,000 FEET AGL WITH NO
       SIGNIFICANT WEATHER OR OBSTRUCTIONS TO VISION.

      THIS PRODUCT IS RELEASED AS TWO VERSIONS.  ONE VERSION NEAR
      THE TOP OF THE HOUR CONTAINING PRELIMINARY DATA FROM ALBUQUERQUE
      AND OTHER STATIONS.  A FINAL VERSION WITH ADDITIONAL DATA IS
      ISSUED ABOUT 10 MINUTES AFTER THE HOUR.

NMZ501-503-504-510>518-191100-
NORTHWEST PLATEAU/NORTHCENTRAL MOUNTAINS

CITY           SKY/WX    TMP DP  RH WIND       PRES   REMARKS
FARMINGTON     CLOUDY    43  30  60 SE12      29.74S
LOS ALAMOS     FAIR      43  25  49 SW7       29.83F
SANTA FE       FAIR      39  27  62 S6        29.81R WCI  35
TAOS           FAIR      34  21  60 W5        29.84F WCI  30
ANGEL FIRE     FAIR      29  26  86 CALM      29.88F

$$
NMZ402-403-502-505>509-191100-
WESTCENTRAL MOUNTAINS/SOUTHWEST MOUNTAINS

CITY           SKY/WX    TMP DP  RH WIND       PRES   REMARKS
GALLUP         LGT RAIN  37  35  92 CALM      29.80S
GRANTS         LGT RAIN  37  35  94 SE9       29.82F WCI  30
SILVER CITY    FAIR      36  33  89 SW6       29.86R WCI  31

$$
NMZ407-409-411-412-191100-
SOUTHERN DESERTS

CITY           SKY/WX    TMP DP  RH WIND       PRES   REMARKS
DEMING         FAIR      42  36  79 W10       29.86R
LAS CRUCES     CLOUDY    44  41  90 SE3       29.84F
HOLLOMAN AFB   CLOUDY    46  37  71 CALM      29.91R
ALAMOGORDO     CLOUDY    46  36  66 CALM      29.88R
T OR C         LGT RAIN  43  39  86 SE8       29.83R

$$
NMZ519>523-191100-
CENTRAL VALLEYS/CENTRAL HIGHLANDS

CITY           SKY/WX    TMP DP  RH WIND       PRES   REMARKS
ALBUQUERQUE    CLOUDY    42  33  70 SE14      29.83R
DOUBLE EAGLE   DRIZZLE   41  33  72 SW20      29.83S
MORIARTY ARPT  FAIR      31  26  84 S3        29.85R
CLINES CORNERS FAIR      36  25  64 SW20G26   29.84S WCI  25
BELEN          DRIZZLE   43  35  73 S10       29.84R
SOCORRO        LGT RAIN  42  38  85 S9        29.84S

$$
NMZ524>526-539-540-191100-
SOUTHCENTRAL MOUNTAINS

CITY           SKY/WX    TMP DP  RH WIND       PRES   REMARKS
RUIDOSO        MOCLDY    37  28  70 CALM      29.86S

$$
NMZ527>531-191100-
NORTHEAST HIGHLANDS/NORTHEAST PLAINS

CITY           SKY/WX    TMP DP  RH WIND       PRES   REMARKS
LAS VEGAS      FAIR      33  28  81 E6        29.84S WCI  28
RATON          CLOUDY    41  27  57 SW3       29.83S
CLAYTON        FAIR      45  37  73 SW10      29.80F

$$
NMZ532>537-191100-
EASTCENTRAL PLAINS

CITY           SKY/WX    TMP DP  RH WIND       PRES   REMARKS
TUCUMCARI      FAIR      46  36  68 SE3       29.77F
CANNON AFB     FAIR      43  43 100 E7        29.77F
CLOVIS AIRPORT FAIR      41  36  81 E6        29.78F

$$
NMZ028-029-538-191100-
SOUTHEAST PLAINS

CITY           SKY/WX    TMP DP  RH WIND       PRES   REMARKS
ROSWELL        FAIR      44  32  62 CALM        N/A
ARTESIA        FAIR      41  34  75 S9        29.75R
CARLSBAD       FAIR      55  33  43 W25G35    29.72F
HOBBS          FAIR      50  36  57 CALM      29.75R


$$




USA.gov is the U.S. government's official web portal to all federal, state and local government web resources and services.